GFSNW_con_3kmhel_096.txt.gz
Helicity
41 30 3 -5 12 91 100 76 61 21 22 6 11 9 -10 -9 62 9 -147 79 209 221 381 225 136 180 190 120 97 160 134 142 173 141 105 44 56 55 55 74 94 77 74 54
33 24 1 0 44 111 111 77 43 29 10 -11 -1 31 31 -25 -16 10 -78 71 122 159 461 224 130 273 311 305 156 139 106 138 145 105 93 107 71 45 26 31 23 48 97 74
23 18 3 4 69 132 123 62 22 10 7 -8 -1 38 50 -2 -14 -24 -101 34 108 186 323 352 177 136 53 61 63 84 95 117 106 104 84 54 74 44 26 30 64 73 96 76
14 15 5 -6 53 118 108 46 18 9 -23 13 50 49 62 55 95 10 -42 -9 74 120 136 210 344 260 184 100 78 57 53 61 67 54 64 37 40 81 70 39 19 55 86 76
5 11 -6 -13 48 149 94 76 19 -24 9 37 21 118 71 24 36 58 6 18 12 104 63 25 72 92 74 43 79 19 17 1 1 1 15 1 10 69 63 8 19 69 32 82
4 8 -7 -11 77 152 88 61 38 -27 -66 16 30 69 91 132 133 162 116 66 2 34 41 31 6 0 3 10 12 7 -6 -12 -4 6 14 16 29 64 45 8 44 70 33 35
5 5 -6 -9 59 120 102 60 49 -7 -80 -24 25 70 85 143 235 138 106 76 21 8 39 9 -11 -19 -31 -19 -19 -1 7 11 -3 -9 12 -10 15 44 26 12 -3 23 33 32
6 5 -9 -9 5 107 75 89 84 25 -56 15 19 30 54 76 109 49 40 46 21 33 11 17 17 12 13 22 -2 -11 37 42 26 5 22 34 47 74 73 4 55 36 30 73
1 -6 -27 -20 -22 14 116 90 111 73 17 4 18 25 12 20 30 47 26 19 17 19 6 9 25 25 28 60 45 48 47 60 48 28 16 -2 0 9 44 63 41 108 64 58
-19 -19 -30 -32 -31 -8 95 70 143 103 49 52 50 32 29 23 20 18 20 46 48 20 1 -6 11 32 48 44 31 33 37 47 45 55 36 7 36 -9 -24 27 61 57 79 62
-31 -37 -48 -38 -41 -18 93 66 115 128 47 26 19 7 13 26 29 36 44 39 47 54 47 36 32 42 73 60 46 27 2 13 14 21 24 15 15 3 61 85 179 142 155 118
-33 -50 -69 -17 -23 -12 93 71 117 112 63 4 16 -8 -2 3 1 22 65 33 71 97 63 53 16 58 63 66 62 54 44 33 23 6 39 110 83 39 76 123 136 171 170 180
13 5 -26 -16 14 -8 64 160 166 183 80 55 35 61 58 40 32 63 37 46 22 42 62 35 49 43 44 61 47 44 52 32 12 11 138 151 110 128 156 138 140 153 165 161
62 58 -24 -32 -6 10 44 226 225 169 73 -7 17 -16 10 16 100 85 73 47 26 0 47 80 75 41 29 43 36 28 22 24 17 -8 151 181 212 142 120 134 146 132 172 134
74 31 -24 -3 12 17 54 149 176 185 88 26 58 71 -3 48 67 104 70 51 54 49 20 81 60 45 32 33 31 48 26 40 34 33 34 72 134 148 148 171 130 95 131 141
50 -16 4 15 28 50 82 100 146 141 152 72 15 20 5 24 54 64 77 69 49 42 6 26 28 2 11 26 42 48 8 13 65 30 27 44 52 66 33 20 8 23 -1 -2
32 42 18 16 36 95 97 76 24 156 185 102 54 47 55 70 67 74 57 99 97 78 24 10 23 19 17 37 53 56 48 16 42 49 43 19 32 17 36 0 -23 -25 -14 -2
25 15 19 26 34 92 95 72 -5 127 214 102 96 79 68 56 63 67 74 65 76 58 57 32 1 16 30 10 32 55 78 21 30 18 38 26 36 44 38 34 25 24 17 23
22 16 29 46 74 138 175 101 128 158 119 111 106 102 62 91 106 107 98 61 88 63 53 48 30 33 25 41 33 58 65 43 33 5 28 28 58 68 71 76 84 64 57 56
7 48 85 125 102 138 355 282 179 99 109 142 90 102 119 102 91 84 84 67 58 30 54 61 55 64 112 128 116 88 73 63 70 58 72 92 86 101 94 83 70 74 78 80
47 47 98 128 259 265 182 173 116 145 121 58 72 85 79 74 77 61 36 26 36 32 30 42 16 42 117 139 122 95 76 65 66 79 86 87 95 93 98 103 96 82 93 98
86 172 260 259 135 105 104 190 207 115 88 50 82 127 119 76 25 27 14 7 -7 22 52 29 10 78 124 108 91 65 82 76 76 85 96 107 106 94 81 73 76 74 69 66
307 242 219 181 173 99 124 185 123 87 67 73 81 118 63 24 -23 -5 -4 -11 5 28 17 -8 31 97 108 84 62 59 64 68 81 104 103 103 115 126 119 103 97 91 99 84
213 173 147 132 75 63 83 97 99 105 51 85 98 77 20 16 18 8 -11 15 12 -11 -10 3 96 114 100 92 71 69 68 77 74 67 74 80 78 82 89 89 81 92 98 96
187 154 111 66 76 105 121 115 134 148 79 116 86 59 31 42 34 45 13 6 -12 -19 -13 30 25 71 79 85 73 64 58 48 39 15 25 35 46 57 65 65 70 72 75 80
73 100 59 72 88 106 115 146 137 157 125 75 61 34 21 27 23 9 -6 -10 -12 19 3 48 66 51 43 47 53 42 27 30 32 33 36 51 69 78 74 86 96 80 69 75
84 64 93 80 109 74 109 124 137 199 102 46 49 19 12 30 22 1 20 -23 -29 21 38 30 38 28 24 28 35 36 37 48 55 62 73 79 76 83 100 116 78 70 56 39

GFSNW_con_3kmhel_102.txt.gz
Helicity
49 61 57 39 37 44 38 52 73 31 11 44 49 36 44 76 50 -7 -11 86 299 346 300 179 176 131 118 62 36 67 109 88 87 125 131 119 109 86 77 80 40 61 64 43
48 69 54 45 33 18 39 60 61 37 14 45 21 20 31 52 76 -4 -2 151 237 359 209 179 149 204 152 98 86 89 79 75 111 101 105 81 78 82 107 104 98 47 33 35
57 69 47 45 18 45 26 52 63 50 32 35 6 27 22 37 29 13 26 100 174 250 201 84 218 182 176 216 162 172 102 103 90 74 93 87 90 71 70 67 52 58 32 32
64 49 35 43 22 43 19 37 57 41 41 28 -13 39 51 63 52 66 92 -5 69 171 500 490 497 418 304 337 289 241 239 168 110 139 128 115 87 66 59 60 41 35 58 39
48 30 41 40 30 28 38 51 41 40 19 6 -6 31 67 81 145 68 84 43 97 140 178 277 270 372 388 363 328 200 454 269 147 171 98 79 75 62 50 30 24 29 25 30
48 46 53 49 53 15 55 36 23 14 31 8 -17 29 86 106 152 6 8 22 36 87 131 120 116 88 86 104 100 72 13 6 81 78 84 80 56 63 82 56 78 75 67 61
45 50 55 49 49 2 35 41 22 32 38 6 -26 30 94 98 96 68 97 49 11 54 106 81 9 22 23 41 37 19 -3 10 32 34 42 82 80 78 65 75 77 98 88 38
47 52 57 48 29 30 6 38 17 19 35 2 -16 -36 59 79 60 26 23 30 79 122 68 19 -5 -12 24 47 61 17 19 24 27 33 64 51 34 77 91 101 45 80 124 17
49 56 56 49 27 28 29 33 9 9 26 31 -0 -44 27 48 81 40 6 21 16 49 37 21 11 4 10 12 7 21 11 11 27 29 47 69 74 89 37 38 46 89 113 53
30 56 49 52 31 5 54 16 48 21 17 14 4 -2 29 25 17 21 1 31 21 35 42 34 31 20 30 14 14 25 13 21 46 46 62 54 92 114 71 46 75 14 43 43
36 41 42 41 20 -7 47 20 71 23 -0 -19 31 22 4 39 27 27 46 8 20 33 28 29 26 38 45 41 50 39 41 25 28 52 79 84 60 24 38 33 48 54 52 41
33 43 36 26 14 -15 2 36 49 62 17 1 -2 18 55 23 19 27 21 47 47 48 28 30 15 21 36 64 48 53 47 91 56 45 49 17 38 45 46 58 61 63 45 39
40 38 45 15 16 2 -14 2 111 88 32 32 26 21 28 54 70 -8 23 25 40 50 52 52 34 32 28 54 56 49 41 54 45 6 35 61 47 45 52 49 61 53 55 45
44 48 52 29 3 15 -11 35 102 118 9 15 16 13 -6 3 16 43 -2 27 35 32 47 54 55 35 16 28 41 46 48 37 37 35 36 22 51 68 62 65 62 50 50 50
51 55 43 62 71 69 -11 69 117 113 46 16 22 39 28 -8 10 31 34 -2 28 38 33 43 45 22 8 10 19 54 47 29 29 46 56 72 58 64 62 54 51 50 33 26
54 63 66 70 130 13 105 71 76 104 140 53 20 40 29 25 12 41 57 19 17 26 28 20 25 21 14 10 23 38 37 32 37 39 56 81 66 32 27 26 22 27 36 46
46 47 77 116 81 40 90 75 67 92 106 62 29 18 50 66 75 62 51 28 12 20 31 45 23 17 19 14 19 79 41 39 45 43 35 25 43 30 24 19 19 18 34 49
55 57 84 74 69 82 73 96 49 125 99 63 33 23 15 34 52 43 45 38 15 13 34 44 39 36 15 6 54 37 46 50 60 63 79 81 54 41 33 27 17 20 27 29
43 61 135 45 58 101 89 76 40 26 44 75 58 45 28 42 72 63 49 47 51 72 41 39 57 55 35 49 38 40 42 27 18 29 38 27 17 28 40 37 28 36 46 64
31 100 102 106 88 62 150 143 97 74 57 65 40 51 35 32 37 57 57 43 53 51 26 46 51 46 71 73 83 98 105 93 34 22 21 21 36 43 50 57 63 65 61 62
108 114 148 110 24 158 124 97 83 96 96 85 97 80 82 49 58 58 44 46 51 37 34 31 12 -3 60 74 123 123 128 113 98 105 89 85 69 49 50 57 74 75 76 85
97 100 138 76 164 93 88 92 137 80 85 97 81 123 130 92 59 28 27 27 29 4 30 16 5 85 58 69 98 104 91 76 67 72 81 92 84 69 65 67 66 64 58 50
71 77 100 166 138 99 124 139 167 138 110 131 137 102 122 105 70 35 28 16 12 -7 11 44 51 57 58 62 61 77 83 84 81 84 86 78 72 61 49 45 41 40 55 61
65 126 134 115 90 139 117 138 164 170 130 99 88 98 70 78 47 -1 -6 -23 -17 27 70 49 32 70 64 67 79 85 85 84 88 89 88 79 71 76 76 79 75 85 104 103
91 149 229 176 108 96 104 106 129 128 129 169 160 148 82 46 -3 -6 -13 1 24 15 5 -0 71 89 69 65 62 75 81 73 64 60 66 68 74 89 101 99 100 98 83 74
128 124 123 112 102 95 110 108 122 161 134 113 110 38 -10 1 -1 -12 6 12 15 -10 -1 70 83 72 63 65 57 60 69 76 81 80 89 96 96 104 116 107 105 95 88 98
88 163 99 152 107 98 136 166 157 155 91 93 38 5 15 9 -5 -3 -12 -7 -10 -10 89 92 48 46 46 56 72 75 79 85 89 97 105 116 116 113 121 148 126 106 105 90

GFSNW_con_3kmhel_105.txt.gz
Helicity
46 40 41 20 8 17 6 24 51 49 6 26 30 6 0 8 -8 -13 14 125 302 450 268 103 26 134 2 68 13 58 4 45 29 -6 4 47 23 30 49 77 57 82 112 65
53 42 47 28 8 13 4 37 47 42 9 12 15 8 -27 -7 15 -24 48 139 100 381 297 40 64 151 228 102 64 65 42 32 19 47 41 85 61 64 81 82 95 39 64 68
49 55 39 21 22 11 6 52 48 47 28 21 -5 -4 -35 23 -69 -52 -16 65 77 300 256 214 386 152 265 142 120 153 98 30 26 52 19 37 63 65 43 61 58 67 43 76
64 53 38 18 30 11 9 35 30 36 40 35 2 11 -1 49 2 -32 -5 -10 50 146 321 584 636 448 234 150 298 130 100 85 80 131 108 49 40 50 49 57 81 67 115 74
52 54 44 24 21 11 27 59 20 42 31 2 6 35 20 71 50 -26 -16 -25 66 129 200 369 554 457 314 115 119 176 308 137 77 51 72 75 81 72 45 37 37 49 64 20
66 55 48 44 11 13 38 30 20 7 38 15 6 18 21 98 70 -20 -19 -17 -34 73 142 199 184 221 247 270 324 138 282 226 89 131 107 73 72 112 96 46 159 127 90 110
69 65 68 44 6 8 44 28 3 17 22 12 4 1 -18 16 85 50 21 10 3 60 113 91 36 38 64 13 6 52 80 243 172 116 86 84 118 118 106 122 101 105 96 25
66 56 62 54 21 -11 33 17 22 16 7 8 3 -1 -6 41 36 49 25 19 57 97 88 30 13 67 97 29 36 11 50 38 16 41 60 62 55 94 118 159 31 108 104 92
60 68 72 64 41 22 20 26 19 22 11 38 -5 -3 -3 6 72 50 33 23 22 52 29 23 34 30 67 41 15 2 19 32 14 17 27 52 148 162 73 46 48 102 77 81
56 73 79 67 55 51 27 15 -3 11 12 5 1 42 26 14 50 42 38 59 33 46 54 31 17 7 31 38 40 43 31 40 70 59 67 45 114 202 127 47 76 58 41 51
55 66 75 67 61 56 3 16 0 1 -3 -26 -34 -12 -4 14 47 54 42 41 30 38 61 45 28 21 28 11 27 35 40 31 31 42 65 64 125 33 62 51 57 55 65 79
45 53 57 66 64 44 16 26 4 -2 -14 -15 -5 -24 24 16 31 38 47 37 48 37 43 39 21 20 24 29 25 62 22 50 37 56 50 26 28 44 40 32 50 46 45 39
45 41 53 55 50 41 13 34 47 48 33 42 15 -4 11 13 32 -18 36 48 44 48 47 41 34 42 35 60 47 44 36 55 38 7 39 56 41 37 45 37 42 42 36 32
49 39 46 26 41 31 37 22 29 70 3 9 -3 21 -8 16 13 25 -8 28 45 39 37 50 51 40 41 40 38 49 40 40 39 40 24 17 36 39 47 52 55 49 33 31
46 33 45 41 29 30 31 11 17 30 3 8 10 3 29 6 -3 6 19 -8 15 36 38 19 27 43 37 20 22 43 44 28 22 59 51 80 50 46 52 49 46 42 40 30
30 41 34 42 41 69 16 40 20 49 81 32 -9 20 21 21 16 35 40 13 -1 17 28 17 18 29 22 21 25 39 38 39 40 33 52 74 59 43 33 18 27 34 44 47
56 53 28 36 8 72 69 58 42 98 115 55 18 18 38 50 45 42 53 24 -13 0 24 15 28 20 19 6 22 45 35 38 38 34 23 25 44 32 20 19 28 17 31 46
54 61 30 57 136 58 68 59 63 112 99 65 45 19 10 11 29 42 34 33 22 -8 0 16 28 19 19 15 44 42 34 28 36 45 65 76 57 59 43 29 22 25 41 51
52 66 55 87 51 60 80 39 36 82 76 58 45 25 28 26 49 50 37 40 27 35 34 24 17 35 28 49 20 34 35 8 39 36 39 34 40 44 49 45 51 66 62 56
53 85 101 94 53 54 130 154 109 63 67 65 25 29 40 17 20 24 30 24 24 36 33 65 50 28 89 95 96 91 79 65 42 23 7 22 43 53 66 70 80 78 69 62
99 145 137 108 35 94 109 125 94 136 70 40 42 26 54 27 32 31 25 38 42 42 50 34 11 10 92 95 111 94 88 86 115 139 122 96 96 73 65 66 66 66 74 73
121 166 100 139 114 103 124 107 116 80 52 58 54 61 113 86 64 43 29 31 36 16 41 10 27 74 81 45 53 71 85 109 124 122 120 112 105 100 90 91 91 81 71 66
100 149 20 149 164 105 104 77 119 70 104 109 91 124 130 90 65 60 34 17 14 18 10 5 51 72 64 49 60 81 88 91 95 96 89 87 90 92 80 74 71 66 65 63
146 150 93 153 129 125 84 73 57 133 134 99 80 110 68 74 71 50 16 21 -2 19 41 28 18 68 78 66 57 67 79 78 82 87 95 96 91 96 95 76 61 65 73 73
152 69 90 84 117 115 147 165 154 127 86 99 106 97 61 66 36 17 7 -12 21 23 24 28 83 112 84 57 48 55 67 70 70 75 79 78 73 73 81 78 75 75 75 81
88 106 90 108 98 91 80 107 85 99 116 100 50 67 22 24 -3 -15 -6 17 32 -3 30 93 114 84 62 50 49 54 65 81 94 94 88 81 68 63 78 79 80 82 89 93
47 37 58 102 135 104 120 93 112 96 92 120 77 21 -4 -14 -8 3 0 23 6 51 81 88 71 53 46 46 52 59 65 71 73 73 74 75 77 84 91 113 125 108 128 104

GFSNW_con_3kmhel_108.txt.gz
Helicity
34 45 46 40 35 19 -1 18 32 51 18 52 26 5 -45 24 -23 -6 -72 -34 63 252 204 73 -53 87 160 14 89 -0 -41 84 25 -17 54 16 -1 59 15 115 57 15 106 170
41 45 50 53 36 26 10 30 45 33 19 50 39 8 -16 -6 -10 -6 -92 -64 -7 138 65 47 273 142 173 167 93 69 19 -12 59 38 38 31 17 20 83 21 91 85 38 38
44 45 52 54 54 30 31 53 44 52 27 38 27 8 -4 5 18 -50 -57 -91 -26 50 197 289 520 253 231 100 133 237 157 14 37 44 68 47 52 32 64 63 51 177 77 47
41 53 55 57 61 33 47 47 29 44 44 36 30 -3 -3 -15 12 -31 -43 -89 -38 66 207 491 427 223 121 134 150 129 54 -24 16 47 35 68 45 65 72 59 84 88 63 -27
50 57 52 62 75 34 41 61 47 40 13 20 22 33 -3 -12 13 22 23 -30 -88 -3 106 263 382 238 118 89 121 63 131 63 -9 139 193 143 42 32 56 110 181 175 68 11
52 47 60 66 63 42 90 43 40 21 35 29 25 31 -2 -0 7 16 22 -5 -48 -44 94 152 201 83 196 127 69 3 163 84 35 77 59 49 174 150 100 94 93 67 71 46
46 60 70 61 77 59 114 104 60 33 31 26 32 4 -10 -5 5 25 42 14 -0 -9 74 71 -3 -20 36 117 108 31 64 146 51 56 76 117 56 56 44 68 141 93 75 37
57 68 70 79 70 84 79 113 79 59 27 14 18 10 -1 -4 5 21 29 38 45 81 47 18 -1 18 8 -8 -2 3 61 164 150 58 92 43 121 215 211 138 72 159 125 100
58 61 66 71 80 76 66 84 50 38 24 58 12 21 9 44 34 27 39 35 24 76 22 -0 51 53 131 17 4 -12 39 62 49 51 30 40 117 182 119 169 51 107 98 98
53 59 65 69 73 58 50 54 57 41 29 49 39 53 50 24 34 26 33 80 48 72 91 12 9 9 36 40 45 44 55 51 74 43 26 32 187 177 104 69 72 50 85 82
49 52 64 65 72 56 39 56 26 50 19 11 15 6 13 34 69 39 21 54 23 77 85 65 38 6 25 12 49 35 35 53 47 76 59 45 182 43 63 41 41 54 64 80
35 48 60 51 63 66 48 66 46 51 19 -14 -2 -29 -3 -11 -7 10 18 34 40 27 54 57 54 61 44 44 5 56 26 36 26 43 34 35 34 42 43 50 63 55 51 43
28 57 45 43 54 58 50 71 59 40 32 42 10 6 17 8 28 11 -12 74 60 50 25 43 35 56 54 59 33 27 25 50 18 -4 39 51 37 45 50 52 39 32 36 30
36 44 40 37 43 55 49 49 51 51 37 34 14 12 3 29 7 7 1 2 33 36 37 57 52 42 46 48 48 36 30 34 24 26 29 31 44 33 33 46 49 48 37 37
31 30 39 36 27 42 45 41 17 -4 24 35 22 21 49 21 -4 -5 15 5 14 36 46 56 61 40 42 39 23 57 58 34 28 41 62 73 50 41 42 47 53 57 60 56
19 30 45 36 43 41 55 45 29 17 20 28 22 19 6 17 19 16 34 29 6 19 44 40 33 28 34 37 45 42 43 38 51 34 49 83 57 36 28 24 32 42 52 56
35 31 34 40 54 50 63 73 55 19 76 39 33 18 44 30 35 35 35 25 20 -15 10 21 27 24 22 12 38 51 36 36 43 43 33 30 14 30 18 20 31 40 53 53
35 48 46 47 54 67 -8 -18 15 56 92 42 44 32 16 18 19 31 40 27 19 29 16 7 16 23 11 10 33 50 33 32 36 40 53 70 46 40 24 42 45 73 68 69
46 55 44 59 67 49 37 38 77 66 50 49 41 35 31 27 39 24 23 19 21 33 35 28 16 28 39 58 25 39 40 21 64 46 41 35 49 63 78 91 97 100 80 76
49 92 132 124 84 45 116 114 124 92 84 56 30 15 34 22 26 6 1 6 7 19 35 58 47 50 66 97 99 107 74 63 46 25 44 57 69 81 86 87 89 93 86 81
128 167 165 118 17 113 89 116 109 125 76 45 42 21 49 19 25 24 7 14 18 26 52 42 36 36 109 123 162 125 94 98 144 180 177 152 130 72 64 77 86 84 85 79
110 141 121 86 99 92 77 110 138 102 64 38 27 29 57 59 54 42 34 29 34 10 50 42 13 64 86 101 97 88 82 94 118 125 136 144 148 131 110 93 84 78 76 72
76 79 98 145 90 104 126 118 155 98 80 78 42 93 111 81 59 69 56 38 23 40 39 11 45 87 89 94 85 83 81 93 110 120 118 117 129 122 94 87 86 80 79 70
161 102 148 142 104 128 114 91 113 133 101 89 92 100 73 88 68 62 38 27 30 18 6 26 20 39 86 85 90 85 111 128 120 127 122 115 109 110 111 99 84 83 83 78
137 109 123 125 129 147 169 150 122 120 110 145 141 95 60 67 59 42 37 19 6 4 11 24 132 158 158 116 88 68 67 75 71 73 84 96 100 107 105 90 85 78 70 72
178 121 99 110 123 106 132 180 165 104 98 114 57 68 57 60 58 34 -3 8 1 1 51 134 149 128 97 76 51 42 33 41 61 68 70 75 75 78 91 84 85 83 100 93
107 3 17 55 95 47 49 61 54 94 117 100 81 64 62 57 39 11 2 22 35 69 105 112 118 90 74 64 45 44 61 68 64 65 81 101 111 103 91 86 86 69 112 81

GFSNW_con_3kmhel_114.txt.gz
Helicity
49 66 59 80 93 98 105 93 89 49 30 39 33 85 105 79 35 25 31 41 73 135 130 36 -30 45 15 86 105 -19 -39 154 261 0 34 5 36 32 32 -46 -70 -115 1 157
32 59 89 102 102 87 100 100 73 51 43 33 36 50 113 90 71 44 37 45 81 106 93 18 35 67 41 76 40 -24 -37 -51 100 -23 -41 -27 30 55 33 9 10 3 65 57
47 89 98 115 91 102 114 105 69 64 54 52 41 64 89 77 23 23 47 54 61 47 24 7 14 55 26 53 33 0 -14 -64 46 75 75 19 -3 -13 12 29 -4 212 156 42
75 94 114 95 119 103 100 87 46 39 18 18 39 60 54 72 81 19 23 17 32 -10 60 30 45 52 151 36 33 -18 -86 -35 78 -45 22 91 212 66 113 188 131 130 30 27
79 96 98 106 124 105 96 75 65 58 36 39 47 43 53 71 60 26 22 22 15 -36 -55 -16 76 89 62 24 139 19 34 58 261 214 162 154 212 349 415 209 50 -28 -20 -36
74 89 96 98 125 109 106 96 83 42 41 37 51 25 37 39 50 9 -3 -5 -24 -21 -61 50 121 128 152 175 93 88 16 21 69 73 156 222 442 78 153 174 140 22 7 -53
73 81 100 103 125 107 95 91 79 59 71 60 33 44 50 44 70 67 42 -17 -5 0 117 50 20 6 11 -28 -19 13 27 50 -15 35 192 210 21 22 33 120 136 81 3 -12
74 75 102 109 122 107 94 99 62 82 113 100 158 93 44 61 47 68 6 -18 23 78 27 -12 11 -4 13 18 -5 22 39 44 14 58 124 -4 51 68 47 22 83 66 34 -8
78 92 101 109 111 114 84 91 62 62 96 107 74 52 42 27 20 22 -2 0 8 21 7 -8 18 45 41 23 38 26 27 78 39 131 118 66 60 111 -18 -83 51 55 43 57
88 80 103 106 112 102 73 87 71 57 70 53 55 42 27 19 21 22 -7 13 46 28 24 17 34 52 10 42 70 81 59 49 113 121 105 52 95 121 8 14 15 10 10 21
78 92 101 106 118 78 80 80 85 47 40 31 35 20 15 15 32 33 12 16 46 62 38 35 34 36 32 8 29 39 48 46 55 29 55 90 135 24 30 17 30 25 14 -1
69 77 98 107 95 82 86 75 80 69 46 23 19 23 -7 9 9 23 13 16 27 32 47 54 40 53 59 66 36 44 33 31 26 39 7 8 25 49 41 23 13 22 30 6
59 78 92 98 95 96 84 72 66 64 68 63 52 18 7 -3 -5 16 15 6 23 35 25 35 52 54 51 66 34 32 8 6 13 3 7 16 12 21 43 33 23 42 66 94
58 66 86 87 83 85 96 60 42 60 72 57 31 37 -1 -2 11 10 7 -1 11 22 40 32 57 61 39 27 20 22 15 20 8 22 17 26 24 29 32 66 83 82 94 95
43 48 70 69 73 77 77 59 45 43 44 31 29 62 -3 -11 -16 -13 -1 -3 1 23 41 49 62 67 65 37 18 13 5 11 13 26 20 25 20 21 35 61 86 85 80 92
42 43 45 65 66 74 92 91 67 38 30 51 42 28 0 0 -10 -3 -6 -7 -6 5 19 18 26 31 55 46 34 11 17 25 -16 8 23 39 25 18 21 59 63 73 91 76
51 45 52 61 68 84 91 76 58 35 35 51 45 20 5 8 19 23 32 29 14 12 8 6 27 47 50 50 36 36 30 29 44 39 54 34 3 11 43 111 107 107 105 115
53 46 57 80 76 65 88 92 74 41 71 64 46 21 25 11 15 10 8 25 28 14 14 -6 -11 -10 37 46 37 39 32 36 45 38 33 74 117 131 177 158 134 117 87 84
51 44 74 118 96 65 72 49 50 64 73 50 30 31 21 29 26 14 11 3 3 6 21 10 24 2 -10 -20 50 73 36 6 27 32 56 115 143 137 145 145 112 103 79 75
58 112 130 112 97 65 41 62 87 62 56 38 22 21 31 31 25 25 15 -2 -3 12 1 32 56 63 62 59 42 18 8 44 43 42 63 80 93 117 124 129 110 96 84 77
117 133 134 142 36 120 103 93 89 56 29 12 19 12 33 23 37 21 12 9 6 18 -1 32 31 56 74 137 187 175 176 126 108 61 73 95 121 124 114 97 87 85 84 79
110 125 143 127 131 122 103 100 80 22 9 20 31 14 30 26 31 37 22 24 29 1 31 36 21 53 137 214 208 197 176 187 196 161 192 165 127 97 99 93 95 95 93 85
120 165 161 146 114 107 127 137 102 24 19 -2 28 48 48 59 54 46 32 21 16 29 25 27 21 103 169 213 224 180 143 133 135 159 158 140 109 78 90 111 106 106 97 74
170 207 176 139 124 119 89 64 34 29 33 50 69 93 57 44 65 47 39 12 31 9 5 11 51 149 197 194 170 170 76 89 98 92 78 79 84 90 95 110 105 106 88 66
247 217 222 171 149 108 88 3 46 44 65 128 125 87 58 67 56 35 28 21 5 8 -12 -9 88 190 231 188 121 108 76 65 56 42 64 76 80 87 86 74 84 91 81 74
219 176 188 179 165 95 80 73 63 75 125 167 113 54 45 50 49 35 18 23 3 5 -15 16 140 169 162 146 97 70 56 45 46 55 70 71 68 66 59 69 83 74 85 84
179 190 79 169 153 124 68 104 70 70 117 91 55 54 32 70 47 38 36 43 23 14 11 34 78 151 145 113 91 74 64 63 68 78 70 54 53 72 84 77 56 60 65 78

GFSNW_con_3kmhel_117.txt.gz
Helicity
-17 18 35 35 45 106 116 163 104 131 106 148 123 102 123 79 83 56 48 34 24 37 69 34 43 49 -21 -16 10 -12 10 38 86 89 26 -12 -30 6 -10 -49 -14 -44 -53 -52
42 44 59 54 91 67 125 184 162 156 113 100 109 121 100 80 88 67 51 30 28 75 46 30 61 56 26 26 -3 -59 -50 -41 70 4 -8 -8 -3 30 15 -20 -47 -72 -60 26
64 46 51 89 75 98 146 178 137 156 122 103 86 104 114 88 69 47 36 33 42 54 53 55 40 83 20 58 11 7 -8 -53 44 18 -4 32 22 25 24 21 -1 26 107 62
61 44 98 88 83 101 158 170 109 100 95 105 77 72 76 68 74 52 30 39 33 49 24 57 61 29 70 6 22 16 -15 30 88 133 206 187 156 29 167 180 92 171 16 45
71 87 57 63 100 124 122 108 104 121 91 84 70 70 45 51 52 54 42 57 35 48 32 79 89 78 51 25 100 50 -4 36 74 2 169 388 613 696 490 364 49 6 1 52
65 53 59 98 111 107 129 140 131 111 130 85 70 43 41 29 39 49 30 13 14 38 60 50 137 94 124 119 133 91 52 17 1 25 63 295 348 156 128 153 113 -14 19 -34
35 62 81 99 115 91 125 134 115 108 111 69 35 28 31 31 21 31 3 -19 -11 8 80 71 10 -29 -23 -40 18 57 84 70 -13 0 37 135 1 24 68 96 100 31 7 -29
49 55 81 98 100 127 151 129 109 112 129 108 109 75 52 28 30 24 2 -10 -1 40 31 24 41 16 18 2 -3 38 40 34 44 37 96 7 2 11 32 66 80 59 21 8
58 52 76 92 86 120 148 151 106 105 114 106 82 63 44 28 13 13 11 -1 9 22 24 14 38 45 33 20 47 26 31 113 46 65 75 58 26 41 -16 -31 48 31 16 13
59 70 86 99 114 136 129 134 120 93 79 77 65 28 19 13 14 14 -4 24 22 22 18 12 39 33 35 53 48 98 68 79 117 143 91 42 60 65 13 4 -9 -1 -6 2
76 67 88 116 126 124 130 120 131 71 56 74 52 26 17 17 24 28 12 32 27 44 37 13 26 35 32 40 18 48 61 78 85 86 101 98 68 14 9 4 1 6 3 3
61 79 115 133 108 121 121 105 111 91 73 41 38 35 15 5 0 18 12 32 44 44 50 45 57 58 46 38 44 38 33 29 33 43 22 21 45 58 29 -4 -3 -9 4 28
58 103 116 116 118 121 84 101 97 100 90 86 71 54 54 0 -22 -13 15 4 27 48 29 41 55 76 55 43 29 24 14 13 25 13 12 11 9 18 21 26 22 37 62 72
68 78 115 126 133 116 103 96 93 91 101 63 46 58 28 3 4 -15 -15 -5 15 27 33 55 66 69 39 45 23 19 15 22 9 22 17 14 13 13 29 39 41 57 56 56
83 110 108 117 120 119 121 111 101 94 72 47 45 61 31 8 -11 -16 -10 -2 3 14 30 50 68 70 63 49 37 23 7 10 6 3 5 18 9 7 27 53 39 26 47 53
66 76 91 106 98 118 146 126 104 98 76 93 50 48 22 6 -3 -2 1 7 4 -2 10 20 27 29 60 66 50 30 24 18 3 1 18 22 19 20 24 41 39 44 55 47
59 77 90 94 109 133 126 83 91 77 71 82 53 53 37 22 22 27 30 28 24 20 11 8 22 34 49 59 47 37 28 36 61 63 78 50 18 10 57 79 72 71 80 66
53 74 84 84 101 124 104 105 103 84 88 76 63 44 46 20 22 17 12 18 28 29 23 14 16 15 32 44 43 53 47 42 49 31 26 48 97 135 112 95 72 70 64 57
59 63 104 151 135 122 133 101 97 108 96 79 61 46 34 28 24 17 12 12 21 13 16 14 28 24 25 30 40 61 54 32 36 60 74 82 102 106 91 89 67 71 58 56
67 145 185 166 122 111 80 119 109 99 80 71 53 63 40 35 40 35 31 17 23 31 11 31 46 43 50 42 48 47 32 51 95 90 57 71 63 68 72 60 54 54 54 63
154 183 159 141 98 144 126 101 88 73 45 51 55 24 44 26 38 24 21 27 25 34 16 31 26 22 48 74 105 66 55 50 27 55 50 37 72 88 89 59 57 69 81 82
137 136 139 171 148 125 94 77 60 42 56 58 52 25 35 31 34 39 29 37 40 20 30 35 17 17 59 95 105 115 137 118 96 97 128 113 85 76 71 68 81 91 102 98
149 197 194 162 116 109 78 36 17 55 75 23 36 62 52 41 48 52 37 43 16 33 41 7 14 61 82 114 130 126 125 129 139 141 137 126 97 65 69 85 88 110 115 92
207 203 166 145 112 84 32 27 45 30 43 25 33 85 49 41 69 48 51 22 35 21 17 -13 28 113 144 122 110 131 86 81 87 102 98 85 79 79 73 84 88 104 102 92
202 188 149 126 109 70 48 36 69 74 17 86 88 72 47 68 63 44 48 36 10 7 -2 -6 30 132 164 136 103 90 63 52 56 49 57 68 80 91 91 66 84 103 115 107
184 138 143 158 134 69 55 51 71 64 58 98 76 57 50 45 43 39 24 24 9 19 24 6 75 128 128 122 85 60 46 40 41 46 66 80 92 97 91 83 74 81 93 86
162 170 114 133 128 120 76 82 71 83 83 93 55 59 38 50 46 36 39 49 36 25 25 4 -5 101 132 121 95 67 55 55 69 77 86 92 110 123 122 93 50 64 70 79

GFSNW_con_3kmhel_123.txt.gz
Helicity
844 856 916 1036 999 646 664 689 606 195 131 321 238 259 194 200 180 177 140 124 114 83 62 88 95 69 35 1 15 45 30 31 105 68 18 37 24 21 -23 9 -30 2 -4 43
164 322 487 527 511 554 712 707 713 214 200 366 289 229 232 209 193 152 134 118 94 66 51 78 48 38 -5 4 15 37 38 16 18 15 50 35 9 -13 -9 3 -3 26 11 25
133 168 201 232 242 487 527 602 584 310 148 175 188 209 200 222 187 156 120 104 82 66 45 34 53 46 22 11 -4 -19 18 4 -43 -13 22 38 -5 4 1 -26 19 66 35 4
146 145 183 252 186 140 236 376 387 249 297 200 202 187 188 181 184 143 118 114 77 52 51 44 39 18 53 17 -1 -5 7 18 54 62 122 146 250 135 123 24 21 -8 -6 -3
108 117 90 39 -11 128 206 206 208 113 199 133 203 171 148 158 174 133 106 82 51 33 39 32 35 41 37 25 -1 5 21 5 1 0 15 95 259 272 146 104 50 27 -5 18
102 54 65 58 98 156 104 129 165 144 140 162 134 138 157 115 123 156 90 65 45 38 29 33 39 23 1 3 6 23 40 55 13 -18 -6 23 200 229 188 166 121 59 44 -7
38 77 70 62 95 135 92 117 174 108 164 150 135 126 124 110 109 87 86 61 37 44 53 32 28 19 5 -20 -30 10 43 42 28 19 12 36 21 -8 30 89 97 56 20 6
76 116 120 88 104 121 88 109 108 104 201 153 129 138 146 130 113 100 62 59 53 65 53 57 62 64 50 31 11 16 -9 21 42 38 53 56 68 21 2 44 55 73 45 43
149 65 103 100 76 70 76 86 75 86 193 119 124 157 103 105 84 74 57 62 47 42 55 66 83 78 61 33 17 41 9 14 47 58 65 50 68 77 33 49 42 59 42 14
38 75 85 111 106 97 70 69 112 111 101 148 130 108 83 69 71 67 58 48 40 46 57 71 91 92 41 43 28 25 43 44 115 139 87 66 74 80 35 15 29 29 23 24
40 53 81 107 102 104 59 104 128 61 105 155 129 83 60 76 69 49 33 46 49 68 71 67 79 98 69 56 38 28 38 39 57 61 82 77 92 56 33 45 32 14 10 9
44 75 90 90 77 67 87 131 150 171 116 135 122 93 75 63 25 41 54 37 52 44 63 56 79 89 72 55 51 39 45 25 21 48 55 66 94 89 69 25 26 11 12 4
41 72 69 71 52 93 67 105 143 162 150 160 114 124 76 35 38 30 49 47 43 50 29 68 68 94 60 73 46 42 33 12 24 2 15 26 52 65 51 39 39 30 22 15
33 65 73 61 69 87 80 102 143 126 120 106 132 88 83 32 17 45 49 23 43 41 37 64 68 78 33 53 52 50 41 25 25 32 31 46 40 35 34 40 41 48 37 23
44 62 69 60 62 92 99 104 148 124 66 98 104 94 100 33 24 38 18 13 8 8 34 44 62 58 44 47 46 52 18 27 30 10 36 36 28 23 29 40 35 21 22 31
83 78 85 90 120 137 112 140 115 151 144 175 142 102 80 57 33 32 26 7 -4 -7 -3 19 20 20 40 48 53 44 31 33 34 37 63 49 65 40 36 39 28 29 39 36
115 90 126 118 90 107 137 99 133 155 98 105 134 110 77 53 27 31 22 17 10 5 1 12 16 22 32 29 31 34 37 47 58 81 97 86 36 26 30 47 47 52 51 50
100 122 115 150 129 97 129 166 200 155 114 112 88 95 84 69 39 25 25 15 12 11 9 11 16 20 19 10 31 39 30 48 69 64 47 46 68 81 64 52 41 38 38 41
135 120 147 170 147 131 102 113 164 131 104 88 85 72 70 74 46 26 11 -3 7 -5 10 15 15 22 14 17 80 68 60 46 48 60 60 59 61 64 50 43 33 30 28 35
115 199 197 156 137 98 97 126 132 135 130 101 91 91 79 70 52 34 15 8 13 21 21 18 24 28 34 50 59 64 41 64 97 91 44 47 41 45 39 30 29 22 32 36
203 163 183 163 127 144 126 120 121 109 112 101 104 97 79 73 54 36 21 16 11 32 28 25 22 18 31 63 90 83 67 63 46 80 54 32 42 54 54 45 33 28 34 36
146 163 205 172 157 122 97 111 109 96 97 99 110 106 104 78 53 38 16 23 16 32 25 29 21 23 35 57 83 89 84 82 70 73 57 47 46 54 62 51 45 42 51 62
181 237 187 148 144 113 108 101 112 84 90 86 136 130 100 80 57 39 26 29 20 17 26 27 29 31 35 59 95 118 94 97 91 79 67 68 74 81 77 68 58 80 94 93
231 237 195 147 118 112 91 114 107 79 67 66 125 141 94 64 53 29 33 21 20 39 34 26 14 13 46 73 95 135 116 106 84 64 57 71 88 99 92 81 83 107 110 91
206 165 143 124 94 96 69 93 100 77 63 112 132 126 72 74 44 34 30 31 30 22 20 14 0 0 54 77 97 91 105 106 89 59 40 59 79 76 88 85 98 109 119 98
181 143 140 135 107 101 79 112 103 78 51 119 112 99 82 54 35 28 22 46 44 23 26 22 8 16 30 59 81 72 71 85 87 67 59 65 52 66 92 103 93 94 103 98
147 117 107 115 107 103 86 133 106 70 85 132 123 94 57 40 43 31 16 36 33 29 34 24 15 20 33 64 116 108 88 70 65 68 51 58 86 125 126 102 85 97 96 94